Get Adobe Flash player

Seitennavigation

Webcam Flugfeld LOAR

Segelflugfeld Altlichtenwarth


... kommen sie zu uns ..... genießen sie die Faszination Fliegen ...


Flugplatzausweise!

Bitte alle Piloten und Mitglieder von LOAR, die noch keinen Flugplatzausweis
erhalten haben, mit Herrn Münzker in Verbindung setzen wegen Aushändigung.


 

Gäste online

Aktuell sind 104 Gäste und keine Mitglieder online

Sonnenaufgang Sonnenuntergang

Sun 28 Aug
Sunrise 06:03
Sunset 19:43

Aviation WX

[Quelle: ADDS]
METAR
LOWW 281150Z 15012KT 120V180 9999 FEW050 29/15 Q1018 NOSIG =
TAF
LOWW 281115Z 2812/2918 15012KT CAVOK TX30/2814Z TN18/2903Z TEMPO 2812/2816 16015G25KT BECMG 2900/2902 17004KT PROB30 TEMPO 2902/2908 4000 BR NSC BECMG 2908/2910 33010KT 9999 FEW040 FEW050CB PROB40 TEMPO 2911/2916 30015G25KT TSRA BKN040 FEW050CB =